ONEWEB-0167, 48064

Orbit data source: Space-Track

ONEWEB-0167, 48064 is a payload satellite owned by One Web (NAA) (UK) in LEO that was launched on Thu, 25 Mar 2021 UTC via a SOYUZ-2-1B launch vehicle from the Vostochny Cosmodrome (VOSTO). Payload-class satellites include a variety of spacecraft equipped with specific instruments for various scientific and technological missions. These include communications satellites like Starlink; space stations such as the ISS; scientific satellites like the Hubble; Earth observation satellites from companies like Planet Labs, Umbra, and HawkEye 360; GPS; miniature CubeSats for education and research; and military/defense satellites.

Loading next visibility...
Identifier
48064, 2021-025Y
Orbit
LEO
Country
Flag of UKUK
Related business
Manufacturer
One Web
Mission
Operational Commercial Communications
Bus & Motor
ARROW, Unknown motor
Mass
148 kg wet, ~140 kg dry
Launch date (UTC)
2021-03-25 (5 years ago)
Launch vehicle
SOYUZ-2-1B
Launch site
Vostochny Cosmodrome (VOSTO)
Object type
Payload
Rocket body
Debris
Shape & HBR
Trap Box + 2 Pan, 6.7 m
Radar Cross Section
3.464 m², Large (>1 m²)

Expand to show TLE details & history
Last TLE update: 2 days ago

TLE from 2 days ago
0 ONEWEB-0167
1 48064U 21025Y   26171.39971510  .00000369  00000-0  97526-3 0  9994
2 48064  87.8955 319.5905 0001866 118.2311 241.9007 13.13468627253998
Epoch: 2026-06-20T09:35Z
TLE epoch observation values (Epoch: 2026-06-20T09:35:35.384Z)
Latitude
Longitude
-92.92182°
Altitude
1,213.33 km
Speed
7.247 km/s
True Right ascension
21h 18m 21s
True Declination
0° 00' 00"
Sunlit
Object was in full shadow at epoch
Visualization orbit readout
Latitude
Unknown
Longitude
Unknown
Altitude
Unknown
Speed
Unknown
Apparent Right ascension
Unknown
Apparent Declination
Unknown
Sunlit
N/A
Visualization observer readout
Local Sidereal Time
21:26:33
Azimuth
Unknown
Elevation
Unknown
Doppler factor
Unknown
Orbital elements
Apogee altitude
1,208.301 km
Perigee altitude
1,205.47 km
Semi-major axis
7,585.023 km
Eccentricity
0.00019
Inclination
87.8955°
RAAN
319.5905°
Arg. of periapsis
118.2311°
True anomaly
241.88184°
Mean anomaly
241.9007°
Eccentric anomaly
241.89127°
Mean motion
3.28555 °/min
Orbital period
109.57 mins
BSTAR
0.00097526
Loading maneuver chart data...
Computing Atmospheric mass density...
Loading historical data...
Loading historical data...
Loading historical data...
Loading historical data...
Loading historical data...
Loading historical data...
Loading historical data...

Documentation

Showing up to 5 results
|